Dewpoint
61 61 60 60 59 59 58 57 56 55 54 54 53 53 52 52 52 51 50 50 50 50 49 48 48 48 49 49 48 48 48 48 47 48 48 48 48 49 49 49 49 49 49 49 49 49 49 48 48 48 49 48
59 59 60 60 59 59 59 58 56 55 54 54 53 53 53 53 53 51 49 49 49 50 49 48 47 47 47 48 47 47 48 47 47 46 47 47 49 48 48 48 48 47 48 48 48 47 47 47 46 46 48 47
59 58 58 58 59 58 58 58 57 56 55 54 54 54 54 53 52 52 52 51 48 47 48 47 47 47 47 47 47 47 46 47 46 46 47 47 48 49 48 47 47 46 46 46 46 45 45 44 44 45 47 47
60 57 57 57 57 57 57 56 56 56 55 54 54 54 52 52 51 52 50 52 48 48 47 49 46 45 47 47 47 46 46 46 46 46 46 47 48 48 47 46 45 45 44 45 44 44 42 41 41 42 43 47
56 57 56 56 56 56 55 55 55 54 54 54 53 51 51 51 48 48 47 46 46 48 46 49 50 46 45 47 46 45 44 44 45 45 46 47 49 47 45 43 43 42 42 42 42 41 39 38 38 41 43 45
55 56 56 56 55 54 54 54 54 53 53 51 51 51 49 49 48 48 48 46 48 45 45 47 49 50 45 46 46 45 44 44 45 44 46 46 45 44 43 40 37 36 38 39 39 37 36 34 36 40 42 44
54 54 54 55 54 54 54 53 53 52 51 50 49 49 47 45 46 46 46 46 46 46 48 47 49 50 45 45 45 44 44 43 43 45 44 43 42 39 35 30 29 29 29 30 32 32 33 32 35 39 41 43
53 53 53 53 53 53 52 52 52 51 50 49 48 48 45 44 46 45 45 47 47 47 46 48 49 49 49 49 47 45 44 44 43 42 41 39 34 28 24 23 19 20 21 21 24 26 27 30 35 36 38 40
52 52 52 52 52 52 51 50 50 49 48 48 47 46 44 45 45 45 44 45 44 44 44 45 45 45 45 45 45 45 44 41 37 32 29 25 23 22 24 23 21 21 19 19 21 23 25 29 33 35 36 39
51 53 52 51 50 49 49 49 47 46 45 45 46 45 44 44 44 44 44 44 44 44 44 43 43 43 42 43 42 41 38 34 30 23 21 22 20 18 21 22 22 21 17 18 15 18 26 26 29 32 34 37
51 51 51 50 49 49 47 47 45 44 43 43 44 45 45 43 43 42 42 42 43 42 42 41 41 40 41 41 40 37 34 32 27 19 17 18 20 18 20 21 21 21 21 21 21 22 25 27 28 31 33 36
50 51 50 50 49 48 47 46 45 44 43 44 43 44 43 42 42 41 40 41 41 41 40 40 40 39 39 38 36 34 32 29 23 18 17 20 19 14 17 18 19 16 16 19 22 22 23 26 26 29 32 36
50 50 50 49 48 48 48 47 46 44 43 42 42 43 43 42 41 40 40 40 39 38 39 37 37 36 36 35 33 31 27 26 22 18 17 17 16 16 16 15 18 16 15 15 17 18 21 22 25 29 32 35
50 49 49 49 48 48 47 47 46 45 42 40 40 41 43 43 41 40 39 39 36 36 36 35 35 34 33 31 29 28 26 21 18 16 17 18 18 13 15 12 14 13 16 13 16 16 19 18 18 26 30 34
49 48 48 48 48 47 47 46 44 43 41 40 40 40 42 43 41 40 39 38 36 35 34 33 32 30 29 26 25 23 22 20 19 17 16 18 14 14 13 15 13 11 13 15 16 17 19 17 16 19 27 30
48 48 48 48 47 46 46 45 43 40 39 39 39 40 41 41 40 38 37 37 35 34 33 30 29 26 24 21 20 20 21 20 19 17 21 23 21 20 17 13 12 12 9 11 11 15 17 17 15 15 21 28
48 48 47 47 47 46 45 43 41 39 38 38 37 38 40 39 39 36 36 35 34 33 31 29 28 25 23 20 20 19 24 24 22 20 19 21 21 18 16 15 15 18 10 11 11 10 13 12 15 15 16 23
48 47 47 47 46 45 44 42 41 39 38 36 36 37 38 37 37 35 33 34 34 32 29 29 28 25 22 20 22 22 23 19 16 14 17 17 15 16 13 15 14 9 11 8 8 10 13 12 14 12 15 16
48 47 47 45 44 44 43 41 40 38 35 34 33 34 35 35 35 34 32 33 32 30 28 27 25 24 21 22 22 19 18 16 16 16 17 15 13 14 11 14 14 14 13 11 8 9 8 8 9 14 15 16
47 46 46 45 44 43 43 41 40 38 36 34 32 33 33 34 34 34 32 32 32 29 28 25 24 23 22 25 20 19 19 19 16 16 18 16 16 14 14 14 14 12 12 11 9 11 8 9 12 9 11 15
47 46 44 43 43 42 42 41 40 38 35 33 31 31 32 33 33 33 32 31 31 28 28 25 25 23 26 23 20 20 19 16 17 17 20 16 17 16 12 14 13 10 10 11 7 11 11 12 12 11 11 10
47 46 44 43 43 41 42 40 39 38 36 33 31 31 31 33 32 33 32 31 30 28 28 27 26 25 25 22 20 20 18 15 16 17 18 15 17 16 14 11 13 10 8 13 12 8 10 9 7 8 10 10
47 46 44 43 42 41 40 40 39 38 37 33 30 31 34 33 31 32 32 31 30 28 27 26 26 25 25 21 19 20 18 17 17 17 16 17 16 17 15 11 14 11 13 16 14 11 8 5 -2 7 8 11
47 45 45 45 44 43 42 38 38 38 37 33 31 30 31 31 31 32 31 31 30 28 27 26 25 25 25 22 20 19 18 17 15 17 18 18 19 18 16 18 15 16 12 9 11 10 6 4 3 5 9 6
46 45 46 45 43 43 41 39 39 38 35 34 34 35 37 33 30 32 31 30 30 28 27 25 25 25 24 22 20 19 18 19 17 17 17 17 18 17 14 12 14 16 13 8 5 8 12 9 8 7 4 2
47 47 46 44 44 42 40 38 39 37 35 35 33 35 36 39 37 33 31 29 29 28 27 25 24 24 23 21 20 20 19 20 21 20 17 17 12 17 12 8 13 14 11 -3 -10 -6 -4 5 6 8 7 5
47 46 45 43 42 41 41 38 38 37 37 36 34 34 37 33 34 36 36 33 31 27 27 26 24 23 23 22 21 20 19 20 20 19 17 15 8 8 11 8 15 14 9 -11 -11 -13 -14 -13 -6 6 6 6
47 46 45 44 43 41 41 39 37 36 36 35 33 33 36 37 34 31 31 31 33 32 31 27 24 23 23 22 21 20 18 17 16 16 16 14 11 10 3 3 7 12 13 2 -12 3 -9 -5 -9 -8 2 -3
47 47 46 45 43 41 41 38 38 36 37 38 36 32 33 35 35 35 36 32 31 31 31 29 27 26 23 22 21 20 18 15 15 17 16 14 11 7 3 1 -3 10 10 11 5 -5 -2 8 10 8 -2 -1
46 46 46 45 43 40 40 40 38 38 36 33 33 33 31 31 31 32 33 35 35 30 28 28 26 26 24 22 21 20 18 15 15 16 16 14 12 10 9 6 -1 3 11 10 11 10 6 6 12 -0 -2 -1
45 46 46 45 43 42 40 39 39 36 36 34 33 34 32 31 34 32 29 30 32 33 31 31 31 31 27 22 20 20 18 14 15 15 16 16 14 9 12 12 4 3 5 6 5 9 8 12 6 2 0 0